Location: ??
(35.1715°N, 139.6450°E)
Time: 09:55:09
(UTC+00:00)

COSMOS 2428 - Pass Details

Date: 05 August 2024
Orbit: 842 x 857 km, 70.9° (Epoch: 18 September)

Event Time Altitude Azimuth Distance (km) Brightness Sun altitude
Exits shadow 16:47:52 37° 105° (ESE) 1,278 3.7 -30.8°
Maximum altitude 16:47:53 37° 104° (ESE) 1,278 3.7 -30.8°
Drops below altitude 10° 16:53:04 10° 39° (NE) 2,474 6.0 -30.2°
Sets 16:55:40 0° 31° (NNE) 3,415 7.1 -29.9°
